Location: Taipo
(41.0000°S, 175.9500°E)
Time: 03:11:35
(UTC+00:00)

Cosmos 1943 Rocket - Visible Passes

Search period start: 25 July 2024 00:00
Search period end: 04 August 2024 00:00
Orbit: 812 x 843 km, 71.0° (Epoch: 24 July)

Date Brightness Start Highest point End Pass type
(mag) Time Alt. Az. Time Alt. Az. Time Alt. Az.
25 Jul 2.1 06:35:13 10° SSW 06:40:55 68° ESE 06:46:34 10° NNE visible
25 Jul 4.8 08:20:32 10° WSW 08:23:59 17° W 08:27:27 10° NW visible
26 Jul 2.2 06:15:49 10° SSW 06:21:27 59° ESE 06:27:03 10° NE visible
26 Jul 4.7 08:00:44 10° SW 08:04:39 19° W 08:08:34 10° NW visible
27 Jul 2.4 05:56:25 10° SSW 06:02:00 52° ESE 06:07:32 10° NE visible
27 Jul 4.6 07:41:01 10° SW 07:45:19 22° W 07:49:35 10° NNW visible
28 Jul 2.5 05:37:03 10° SSW 05:42:32 46° ESE 05:47:59 10° NE visible
28 Jul 4.4 07:21:22 10° SW 07:25:57 26° WNW 07:30:31 10° NNW visible
28 Jul 5.7 18:46:27 10° ENE 18:47:48 11° E 18:49:08 10° E visible
29 Jul 4.2 07:01:45 10° SW 07:06:35 29° WNW 07:11:24 10° NNW visible
30 Jul 4.0 06:42:09 10° SW 06:47:13 34° WNW 06:52:15 10° NNW visible
31 Jul 3.8 06:22:35 10° SW 06:27:50 38° WNW 06:33:03 10° N visible
01 Aug 3.6 06:03:04 10° SW 06:08:27 44° WNW 06:13:48 10° N visible
02 Aug 3.3 05:43:32 10° SSW 05:49:03 51° WNW 05:54:31 10° N visible
02 Aug 3.6 18:48:18 10° N 18:53:32 44° ENE 18:58:51 10° SE visible
03 Aug 3.9 18:29:04 10° N 18:34:08 39° ENE 18:39:19 10° SE visible
